| time (UTC) | temp C | wind direction | speed KPH | gust KPH | rain 1hr cm | rain 24hr cm | rain mn cm | humidity % | barometer mb |
| 20260906000435 | 16 | 334 | 0.0 | 1.6 | 0.00 | 0.00 | 0.00 | 91 | 1013.6 |
| 20260905235925 | 17 | 352 | 0.0 | 0.0 | 0.00 | 0.00 | 0.00 | 90 | 1013.6 |
| 20260905235424 | 17 | 335 | 0.0 | 1.6 | 0.00 | 0.00 | 0.00 | 89 | 1013.6 |
| 20260905234919 | 17 | 325 | 0.0 | 3.2 | 0.00 | 0.00 | 0.00 | 89 | 1013.5 |
| 20260905234415 | 17 | 344 | 3.2 | 3.2 | 0.00 | 0.00 | 0.00 | 89 | 1013.7 |
| 20260905233909 | 17 | 328 | 0.0 | 1.6 | 0.00 | 0.00 | 0.00 | 88 | 1013.6 |
| 20260905233405 | 17 | 6 | 0.0 | 1.6 | 0.00 | 0.00 | 0.00 | 87 | 1013.6 |
| 20260905232903 | 17 | 269 | 0.0 | 3.2 | 0.00 | 0.00 | 0.00 | 87 | 1013.7 |
| 20260905232400 | 18 | 309 | 0.0 | 1.6 | 0.00 | 0.00 | 0.00 | 87 | 1013.7 |
| 20260905231855 | 18 | 13 | 0.0 | 0.0 | 0.00 | 0.00 | 0.00 | 86 | 1013.6 |
| 20260905231350 | 18 | 11 | 0.0 | 3.2 | 0.00 | 0.00 | 0.00 | 84 | 1013.6 |
| 20260905230847 | 18 | 308 | 1.6 | 4.8 | 0.00 | 0.00 | 0.00 | 83 | 1013.4 |
| 20260905230344 | 19 | 315 | 0.0 | 3.2 | 0.00 | 0.00 | 0.00 | 82 | 1013.6 |
| 20260905225844 | 20 | 308 | 0.0 | 3.2 | 0.00 | 0.00 | 0.00 | 80 | 1013.5 |
| 20260905225339 | 19 | 335 | 3.2 | 6.4 | 0.00 | 0.00 | 0.00 | 80 | 1013.6 |
| 20260905224834 | 19 | 338 | 1.6 | 4.8 | 0.00 | 0.00 | 0.00 | 80 | 1013.5 |
| 20260905224330 | 19 | 317 | 3.2 | 9.7 | 0.00 | 0.00 | 0.00 | 80 | 1013.5 |
| 20260905223824 | 20 | 32 | 4.8 | 4.8 | 0.00 | 0.00 | 0.00 | 79 | 1013.4 |
| 20260905223322 | 20 | 329 | 1.6 | 4.8 | 0.00 | 0.00 | 0.00 | 78 | 1013.4 |
| 20260905222817 | 20 | 335 | 3.2 | 6.4 | 0.00 | 0.00 | 0.00 | 78 | 1013.5 |
| 20260905222316 | 20 | 315 | 3.2 | 3.2 | 0.00 | 0.00 | 0.00 | 78 | 1013.3 |
| 20260905221812 | 20 | 324 | 4.8 | 4.8 | 0.00 | 0.00 | 0.00 | 78 | 1013.3 |
| 20260905221309 | 20 | 332 | 0.0 | 4.8 | 0.00 | 0.00 | 0.00 | 76 | 1013.3 |
| 20260905220804 | 20 | 325 | 1.6 | 3.2 | 0.00 | 0.00 | 0.00 | 75 | 1013.1 |
| 20260905220300 | 20 | 339 | 3.2 | 4.8 | 0.00 | 0.00 | 0.00 | 74 | 1013.4 |
| 20260905215759 | 21 | 263 | 0.0 | 8.0 | 0.00 | 0.00 | 0.00 | 73 | 1013.3 |
| 20260905215255 | 21 | 287 | 1.6 | 6.4 | 0.00 | 0.00 | 0.00 | 72 | 1013.0 |
| 20260905214750 | 22 | 298 | 1.6 | 4.8 | 0.00 | 0.00 | 0.00 | 70 | 1013.0 |
| 20260905214246 | 21 | 294 | 1.6 | 6.4 | 0.00 | 0.00 | 0.00 | 71 | 1013.0 |
| 20260905213741 | 21 | 286 | 1.6 | 6.4 | 0.00 | 0.00 | 0.00 | 74 | 1012.8 |
| 20260905213238 | 21 | 303 | 1.6 | 1.6 | 0.00 | 0.00 | 0.00 | 74 | 1012.7 |
| 20260905212733 | 21 | 302 | 1.6 | 4.8 | 0.00 | 0.00 | 0.00 | 73 | 1012.6 |
| 20260905212232 | 21 | 313 | 1.6 | 9.7 | 0.00 | 0.00 | 0.00 | 72 | 1012.8 |
| 20260905211731 | 21 | 329 | 3.2 | 6.4 | 0.00 | 0.00 | 0.00 | 71 | 1012.7 |
| 20260905211227 | 21 | 311 | 0.0 | 4.8 | 0.00 | 0.00 | 0.00 | 72 | 1012.6 |
| 20260905210724 | 21 | 276 | 1.6 | 8.0 | 0.00 | 0.00 | 0.00 | 73 | 1012.6 |
| 20260905210223 | 21 | 351 | 4.8 | 8.0 | 0.00 | 0.00 | 0.00 | 74 | 1012.7 |
| 20260905205722 | 21 | 98 | 1.6 | 4.8 | 0.00 | 0.00 | 0.00 | 74 | 1012.7 |
| 20260905205217 | 21 | 343 | 0.0 | 4.8 | 0.00 | 0.00 | 0.00 | 74 | 1012.8 |
| 20260905204717 | 20 | 2 | 3.2 | 4.8 | 0.00 | 0.00 | 0.00 | 75 | 1012.7 |
| 20260905204212 | 20 | 326 | 0.0 | 4.8 | 0.00 | 0.00 | 0.00 | 73 | 1012.7 |
| 20260905203706 | 20 | 291 | 1.6 | 3.2 | 0.00 | 0.00 | 0.00 | 72 | 1012.7 |
| 20260905203202 | 21 | 296 | 0.0 | 1.6 | 0.00 | 0.00 | 0.00 | 71 | 1012.7 |
| 20260905202657 | 21 | 322 | 4.8 | 11.3 | 0.00 | 0.00 | 0.00 | 69 | 1012.8 |
| 20260905202152 | 23 | 337 | 4.8 | 6.4 | 0.00 | 0.00 | 0.00 | 66 | 1012.6 |
| 20260905201648 | 22 | 358 | 1.6 | 6.4 | 0.00 | 0.00 | 0.00 | 69 | 1012.7 |
| 20260905201147 | 22 | 324 | 3.2 | 6.4 | 0.00 | 0.00 | 0.00 | 67 | 1012.8 |
| 20260905200643 | 21 | 313 | 3.2 | 6.4 | 0.00 | 0.00 | 0.00 | 71 | 1012.7 |
| 20260905200138 | 21 | 247 | 6.4 | 11.3 | 0.00 | 0.00 | 0.00 | 74 | 1012.9 |
| 20260905195636 | 21 | 296 | 3.2 | 9.7 | 0.00 | 0.00 | 0.00 | 73 | 1012.8 |
| 20260905195131 | 21 | 343 | 4.8 | 6.4 | 0.00 | 0.00 | 0.00 | 72 | 1012.7 |
| 20260905194626 | 22 | 275 | 4.8 | 9.7 | 0.00 | 0.00 | 0.00 | 72 | 1012.7 |
| 20260905194126 | 22 | 255 | 1.6 | 3.2 | 0.00 | 0.00 | 0.00 | 72 | 1012.9 |
| 20260905193621 | 21 | 264 | 4.8 | 8.0 | 0.00 | 0.00 | 0.00 | 71 | 1012.7 |
| 20260905193116 | 22 | 356 | 4.8 | 4.8 | 0.00 | 0.00 | 0.00 | 67 | 1012.7 |
| 20260905192611 | 21 | 331 | 3.2 | 4.8 | 0.00 | 0.00 | 0.00 | 69 | 1012.7 |
| 20260905192108 | 21 | 283 | 0.0 | 3.2 | 0.00 | 0.00 | 0.00 | 71 | 1012.6 |
| 20260905191606 | 21 | 299 | 1.6 | 9.7 | 0.00 | 0.00 | 0.00 | 67 | 1012.9 |
| 20260905191105 | 22 | 287 | 1.6 | 4.8 | 0.00 | 0.00 | 0.00 | 66 | 1012.9 |
| 20260905190603 | 22 | 324 | 1.6 | 9.7 | 0.00 | 0.00 | 0.00 | 70 | 1012.7 |
| 20260905185602 | 21 | 256 | 3.2 | 4.8 | 0.00 | 0.00 | 0.00 | 72 | 1012.8 |
| 20260905185056 | 21 | 343 | 3.2 | 6.4 | 0.00 | 0.00 | 0.00 | 71 | 1012.7 |
| 20260905184551 | 21 | 336 | 4.8 | 8.0 | 0.00 | 0.00 | 0.00 | 68 | 1012.8 |
| 20260905184049 | 21 | 357 | 4.8 | 8.0 | 0.00 | 0.00 | 0.00 | 69 | 1012.8 |
| 20260905183543 | 21 | 256 | 0.0 | 4.8 | 0.00 | 0.00 | 0.00 | 69 | 1012.9 |
| 20260905183039 | 21 | 262 | 3.2 | 4.8 | 0.00 | 0.00 | 0.00 | 71 | 1012.7 |
| 20260905182538 | 21 | 47 | 4.8 | 9.7 | 0.00 | 0.00 | 0.00 | 70 | 1012.8 |
| 20260905182033 | 21 | 347 | 4.8 | 4.8 | 0.00 | 0.00 | 0.00 | 71 | 1012.9 |
| 20260905181527 | 21 | 343 | 0.0 | 4.8 | 0.00 | 0.00 | 0.00 | 70 | 1012.8 |
| 20260905181027 | 20 | 358 | 3.2 | 8.0 | 0.00 | 0.00 | 0.00 | 70 | 1012.9 |
| 20260905180522 | 21 | 355 | 4.8 | 8.0 | 0.00 | 0.00 | 0.00 | 69 | 1012.9 |
| 20260905180017 | 21 | 331 | 3.2 | 4.8 | 0.00 | 0.00 | 0.00 | 70 | 1012.8 |
| 20260905175516 | 21 | 345 | 4.8 | 11.3 | 0.00 | 0.00 | 0.00 | 66 | 1013.0 |
| 20260905175012 | 22 | 331 | 4.8 | 4.8 | 0.00 | 0.00 | 0.00 | 66 | 1012.9 |
| 20260905174507 | 22 | 277 | 3.2 | 8.0 | 0.00 | 0.00 | 0.00 | 72 | 1012.8 |
| 20260905174003 | 21 | 271 | 3.2 | 4.8 | 0.00 | 0.00 | 0.00 | 71 | 1012.8 |
| 20260905173459 | 21 | 262 | 3.2 | 8.0 | 0.00 | 0.00 | 0.00 | 72 | 1012.7 |
| 20260905172954 | 20 | 322 | 0.0 | 6.4 | 0.00 | 0.00 | 0.00 | 72 | 1012.9 |
| 20260905172452 | 20 | 352 | 0.0 | 4.8 | 0.00 | 0.00 | 0.00 | 74 | 1013.0 |
| 20260905171948 | 20 | 351 | 3.2 | 11.3 | 0.00 | 0.00 | 0.00 | 72 | 1013.1 |
| 20260905171444 | 21 | 330 | 3.2 | 4.8 | 0.00 | 0.00 | 0.00 | 70 | 1012.9 |
| 20260905170940 | 21 | 296 | 1.6 | 11.3 | 0.00 | 0.00 | 0.00 | 73 | 1012.9 |
| 20260905170436 | 20 | 343 | 3.2 | 9.7 | 0.00 | 0.00 | 0.00 | 72 | 1013.0 |
| 20260905165936 | 21 | 245 | 4.8 | 11.3 | 0.00 | 0.00 | 0.00 | 70 | 1013.1 |
| 20260905165431 | 22 | 344 | 3.2 | 6.4 | 0.00 | 0.00 | 0.00 | 67 | 1013.0 |
| 20260905164926 | 22 | 248 | 4.8 | 8.0 | 0.00 | 0.00 | 0.00 | 67 | 1013.1 |
| 20260905164420 | 22 | 247 | 6.4 | 6.4 | 0.00 | 0.00 | 0.00 | 68 | 1012.9 |
| 20260905163915 | 21 | 344 | 6.4 | 9.7 | 0.00 | 0.00 | 0.00 | 70 | 1013.0 |
| 20260905163412 | 20 | 337 | 3.2 | 11.3 | 0.00 | 0.00 | 0.00 | 71 | 1013.1 |
| 20260905162908 | 20 | 332 | 1.6 | 3.2 | 0.00 | 0.00 | 0.00 | 74 | 1013.0 |
| 20260905162402 | 20 | 322 | 4.8 | 9.7 | 0.00 | 0.00 | 0.00 | 71 | 1013.0 |
| 20260905161857 | 20 | 343 | 4.8 | 14.5 | 0.00 | 0.00 | 0.00 | 70 | 1013.3 |
| 20260905161356 | 21 | 258 | 3.2 | 8.0 | 0.00 | 0.00 | 0.00 | 70 | 1013.1 |
| 20260905160854 | 21 | 0 | 4.8 | 8.0 | 0.00 | 0.00 | 0.00 | 72 | 1013.2 |
| 20260905160349 | 20 | 47 | 0.0 | 4.8 | 0.00 | 0.00 | 0.00 | 77 | 1013.2 |
| 20260905155843 | 20 | 346 | 3.2 | 6.4 | 0.00 | 0.00 | 0.00 | 73 | 1013.4 |
| 20260905155343 | 21 | 303 | 0.0 | 6.4 | 0.00 | 0.00 | 0.00 | 74 | 1013.5 |
| 20260905154842 | 20 | 229 | 1.6 | 4.8 | 0.00 | 0.00 | 0.00 | 76 | 1013.4 |
| 20260905154338 | 20 | 335 | 1.6 | 8.0 | 0.00 | 0.00 | 0.00 | 74 | 1013.4 |
| 20260905153833 | 20 | 258 | 1.6 | 6.4 | 0.00 | 0.00 | 0.00 | 73 | 1013.2 |
| 20260905153330 | 20 | 317 | 1.6 | 4.8 | 0.00 | 0.00 | 0.00 | 74 | 1013.3 |
| 20260905152824 | 20 | 259 | 1.6 | 3.2 | 0.00 | 0.00 | 0.00 | 75 | 1013.3 |
| 20260905152323 | 20 | 320 | 3.2 | 6.4 | 0.00 | 0.00 | 0.00 | 75 | 1013.2 |
| 20260905151818 | 21 | 331 | 1.6 | 9.7 | 0.00 | 0.00 | 0.00 | 70 | 1013.2 |
| 20260905151313 | 21 | 234 | 4.8 | 6.4 | 0.00 | 0.00 | 0.00 | 73 | 1013.5 |
| 20260905150808 | 20 | 4 | 1.6 | 4.8 | 0.00 | 0.00 | 0.00 | 75 | 1013.6 |
| 20260905150308 | 20 | 346 | 3.2 | 8.0 | 0.00 | 0.00 | 0.00 | 74 | 1013.6 |
| 20260905145805 | 20 | 235 | 6.4 | 6.4 | 0.00 | 0.00 | 0.00 | 77 | 1013.4 |
| 20260905145259 | 20 | 338 | 3.2 | 4.8 | 0.00 | 0.00 | 0.00 | 81 | 1013.4 |
| 20260905144758 | 20 | 33 | 4.8 | 12.9 | 0.00 | 0.00 | 0.00 | 77 | 1013.3 |
| 20260905144254 | 20 | 296 | 0.0 | 9.7 | 0.00 | 0.00 | 0.00 | 78 | 1013.3 |
| 20260905143752 | 19 | 322 | 4.8 | 14.5 | 0.00 | 0.00 | 0.00 | 80 | 1013.4 |
| 20260905143247 | 18 | 1 | 3.2 | 6.4 | 0.00 | 0.00 | 0.00 | 84 | 1013.4 |
| 20260905142745 | 18 | 336 | 3.2 | 6.4 | 0.00 | 0.00 | 0.00 | 83 | 1013.5 |
| 20260905142240 | 18 | 329 | 3.2 | 9.7 | 0.00 | 0.00 | 0.00 | 84 | 1013.6 |
| 20260905141736 | 18 | 339 | 4.8 | 11.3 | 0.00 | 0.00 | 0.00 | 83 | 1013.5 |
| 20260905141232 | 18 | 357 | 4.8 | 6.4 | 0.00 | 0.00 | 0.00 | 83 | 1013.2 |
| 20260905140727 | 19 | 3 | 0.0 | 3.2 | 0.00 | 0.00 | 0.00 | 81 | 1013.4 |
| 20260905140227 | 18 | 210 | 1.6 | 8.0 | 0.00 | 0.00 | 0.00 | 81 | 1013.2 |
| 20260905135721 | 19 | 269 | 0.0 | 9.7 | 0.00 | 0.00 | 0.00 | 80 | 1013.2 |
| 20260905135217 | 18 | 341 | 4.8 | 11.3 | 0.00 | 0.00 | 0.00 | 83 | 1013.3 |
| 20260905134716 | 18 | 269 | 0.0 | 3.2 | 0.00 | 0.00 | 0.00 | 85 | 1013.3 |
| 20260905134215 | 18 | 272 | 1.6 | 4.8 | 0.00 | 0.00 | 0.00 | 87 | 1013.3 |
| 20260905133710 | 17 | 12 | 3.2 | 6.4 | 0.00 | 0.00 | 0.00 | 87 | 1013.4 |
| 20260905133205 | 18 | 273 | 4.8 | 12.9 | 0.00 | 0.00 | 0.00 | 88 | 1013.5 |
| 20260905132704 | 17 | 302 | 0.0 | 3.2 | 0.00 | 0.00 | 0.00 | 88 | 1013.2 |
| 20260905132200 | 17 | 302 | 0.0 | 6.4 | 0.00 | 0.00 | 0.00 | 90 | 1013.0 |
| 20260905131649 | 17 | 88 | 1.6 | 4.8 | 0.00 | 0.00 | 0.00 | 90 | 1013.0 |
| 20260905131144 | 16 | 291 | 3.2 | 4.8 | 0.00 | 0.00 | 0.00 | 93 | 1013.1 |
| 20260905130639 | 16 | 355 | 4.8 | 4.8 | 0.00 | 0.00 | 0.00 | 96 | 1013.1 |
| 20260905130138 | 16 | 272 | 4.8 | 6.4 | 0.00 | 0.00 | 0.00 | 96 | 1013.2 |
| 20260905125632 | 16 | 323 | 1.6 | 8.0 | 0.00 | 0.00 | 0.00 | 96 | 1013.3 |
| 20260905125128 | 15 | 2 | 3.2 | 4.8 | 0.00 | 0.00 | 0.00 | 96 | 1013.5 |
| 20260905124625 | 15 | 20 | 0.0 | 4.8 | 0.00 | 0.00 | 0.00 | 96 | 1013.8 |
| 20260905124121 | 15 | 238 | 3.2 | 4.8 | 0.00 | 0.00 | 0.00 | 96 | 1013.9 |
| 20260905123615 | 15 | 328 | 3.2 | 8.0 | 0.00 | 0.00 | 0.00 | 96 | 1013.9 |
| 20260905123113 | 15 | 330 | 1.6 | 3.2 | 0.00 | 0.00 | 0.00 | 96 | 1013.9 |
| 20260905122607 | 15 | 32 | 0.0 | 3.2 | 0.00 | 0.00 | 0.00 | 96 | 1013.6 |
| 20260905122107 | 15 | 18 | 3.2 | 3.2 | 0.00 | 0.00 | 0.00 | 96 | 1013.8 |
| 20260905121601 | 15 | 269 | 0.0 | 8.0 | 0.00 | 0.00 | 0.00 | 96 | 1013.9 |
| 20260905121057 | 15 | 204 | 0.0 | 6.4 | 0.00 | 0.00 | 0.00 | 96 | 1013.7 |
| 20260905120556 | 15 | 206 | 0.0 | 1.6 | 0.00 | 0.00 | 0.00 | 96 | 1013.6 |
| 20260905120051 | 14 | 315 | 0.0 | 3.2 | 0.00 | 0.00 | 0.00 | 96 | 1013.6 |
| 20260905115550 | 14 | 352 | 3.2 | 3.2 | 0.00 | 0.00 | 0.00 | 96 | 1013.4 |
| 20260905115045 | 14 | 60 | 0.0 | 4.8 | 0.00 | 0.00 | 0.00 | 96 | 1013.3 |
| 20260905114544 | 13 | 62 | 1.6 | 3.2 | 0.00 | 0.00 | 0.00 | 96 | 1013.1 |
| 20260905114043 | 13 | 327 | 0.0 | 3.2 | 0.00 | 0.00 | 0.00 | 96 | 1013.1 |
| 20260905113538 | 13 | 36 | 0.0 | 3.2 | 0.00 | 0.00 | 0.00 | 96 | 1013.2 |
| 20260905113034 | 13 | 103 | 0.0 | 3.2 | 0.00 | 0.00 | 0.00 | 96 | 1013.1 |
| 20260905112529 | 13 | 83 | 3.2 | 3.2 | 0.00 | 0.00 | 0.00 | 96 | 1013.1 |
| 20260905112024 | 13 | 107 | 1.6 | 3.2 | 0.00 | 0.00 | 0.00 | 96 | 1013.0 |
| 20260905111519 | 12 | 131 | 1.6 | 3.2 | 0.00 | 0.00 | 0.00 | 96 | 1013.0 |
| 20260905111018 | 12 | 129 | 0.0 | 3.2 | 0.00 | 0.00 | 0.00 | 96 | 1012.8 |
| 20260905110518 | 12 | 105 | 1.6 | 3.2 | 0.00 | 0.00 | 0.00 | 96 | 1013.0 |
| 20260905110013 | 12 | 104 | 0.0 | 3.2 | 0.00 | 0.00 | 0.00 | 96 | 1012.8 |
| 20260905105507 | 12 | 62 | 0.0 | 3.2 | 0.00 | 0.00 | 0.00 | 96 | 1012.8 |
| 20260905105006 | 12 | 59 | 1.6 | 3.2 | 0.00 | 0.00 | 0.00 | 96 | 1012.6 |
| 20260905104503 | 12 | 103 | 0.0 | 1.6 | 0.00 | 0.00 | 0.00 | 96 | 1012.6 |
| 20260905103957 | 12 | 113 | 1.6 | 3.2 | 0.00 | 0.00 | 0.00 | 96 | 1012.6 |
| 20260905103452 | 12 | 22 | 0.0 | 0.0 | 0.00 | 0.00 | 0.00 | 96 | 1012.5 |
| 20260905102948 | 12 | 49 | 0.0 | 3.2 | 0.00 | 0.00 | 0.00 | 96 | 1012.5 |
| 20260905102444 | 12 | 22 | 0.0 | 0.0 | 0.00 | 0.00 | 0.00 | 96 | 1012.4 |
| 20260905101939 | 12 | 22 | 0.0 | 1.6 | 0.00 | 0.00 | 0.00 | 96 | 1012.3 |
| 20260905101438 | 12 | 60 | 0.0 | 1.6 | 0.00 | 0.00 | 0.00 | 96 | 1012.5 |
| 20260905100932 | 12 | 72 | 1.6 | 3.2 | 0.00 | 0.00 | 0.00 | 96 | 1012.2 |
| 20260905100428 | 12 | 94 | 1.6 | 3.2 | 0.00 | 0.00 | 0.00 | 96 | 1012.2 |
| 20260905095927 | 12 | 89 | 0.0 | 1.6 | 0.00 | 0.00 | 0.00 | 96 | 1012.2 |
| 20260905095422 | 12 | 94 | 0.0 | 1.6 | 0.00 | 0.00 | 0.00 | 96 | 1012.1 |
| 20260905094922 | 12 | 32 | 0.0 | 3.2 | 0.00 | 0.00 | 0.00 | 96 | 1012.1 |
| 20260905094418 | 12 | 89 | 0.0 | 3.2 | 0.00 | 0.00 | 0.00 | 96 | 1012.1 |
| 20260905093916 | 12 | 113 | 0.0 | 3.2 | 0.00 | 0.00 | 0.00 | 96 | 1012.0 |
| 20260905093412 | 12 | 89 | 0.0 | 0.0 | 0.00 | 0.00 | 0.00 | 96 | 1012.3 |
| 20260905092907 | 12 | 110 | 0.0 | 3.2 | 0.00 | 0.00 | 0.00 | 96 | 1012.1 |
| 20260905092402 | 12 | 89 | 0.0 | 3.2 | 0.00 | 0.00 | 0.00 | 96 | 1012.1 |
| 20260905091857 | 12 | 123 | 0.0 | 1.6 | 0.00 | 0.00 | 0.00 | 96 | 1012.3 |
| 20260905091357 | 12 | 95 | 1.6 | 1.6 | 0.00 | 0.00 | 0.00 | 96 | 1012.1 |
| 20260905090856 | 12 | 148 | 0.0 | 3.2 | 0.00 | 0.00 | 0.00 | 96 | 1012.3 |
| 20260905090352 | 12 | 35 | 0.0 | 3.2 | 0.00 | 0.00 | 0.00 | 96 | 1012.2 |
| 20260905085850 | 13 | 94 | 0.0 | 3.2 | 0.00 | 0.00 | 0.00 | 96 | 1012.1 |
| 20260905085345 | 13 | 49 | 0.0 | 3.2 | 0.00 | 0.00 | 0.00 | 96 | 1012.1 |
| 20260905084842 | 13 | 129 | 0.0 | 0.0 | 0.00 | 0.00 | 0.00 | 96 | 1012.2 |
| 20260905084340 | 13 | 89 | 0.0 | 1.6 | 0.00 | 0.00 | 0.00 | 96 | 1012.1 |
| 20260905083835 | 13 | 89 | 0.0 | 0.0 | 0.00 | 0.00 | 0.00 | 96 | 1012.1 |
| 20260905083331 | 13 | 103 | 0.0 | 1.6 | 0.00 | 0.00 | 0.00 | 96 | 1012.1 |
| 20260905082827 | 13 | 119 | 0.0 | 1.6 | 0.00 | 0.00 | 0.00 | 96 | 1012.4 |
| 20260905082322 | 13 | 102 | 0.0 | 1.6 | 0.00 | 0.00 | 0.00 | 96 | 1012.4 |
| 20260905081817 | 13 | 103 | 0.0 | 1.6 | 0.00 | 0.00 | 0.00 | 96 | 1012.4 |
| 20260905081313 | 13 | 50 | 0.0 | 1.6 | 0.00 | 0.00 | 0.00 | 96 | 1012.2 |
| 20260905080811 | 13 | 142 | 0.0 | 1.6 | 0.00 | 0.00 | 0.00 | 96 | 1012.4 |
| 20260905080306 | 13 | 119 | 0.0 | 1.6 | 0.00 | 0.00 | 0.00 | 96 | 1012.4 |
| 20260905075805 | 13 | 50 | 0.0 | 1.6 | 0.00 | 0.00 | 0.00 | 96 | 1012.3 |
| 20260905075306 | 14 | 37 | 0.0 | 1.6 | 0.00 | 0.00 | 0.00 | 96 | 1012.6 |
| 20260905074803 | 14 | 38 | 0.0 | 1.6 | 0.00 | 0.00 | 0.00 | 96 | 1012.4 |
| 20260905074300 | 14 | 217 | 0.0 | 0.0 | 0.00 | 0.00 | 0.00 | 96 | 1012.5 |
| 20260905073755 | 14 | 50 | 0.0 | 1.6 | 0.00 | 0.00 | 0.00 | 96 | 1012.2 |
| 20260905073250 | 14 | 33 | 0.0 | 3.2 | 0.00 | 0.00 | 0.00 | 96 | 1012.2 |
| 20260905072744 | 14 | 25 | 1.6 | 3.2 | 0.00 | 0.00 | 0.00 | 96 | 1012.4 |
| 20260905072239 | 14 | 28 | 1.6 | 1.6 | 0.00 | 0.00 | 0.00 | 96 | 1012.5 |
| 20260905071736 | 15 | 25 | 0.0 | 1.6 | 0.00 | 0.00 | 0.00 | 96 | 1012.4 |
| 20260905071232 | 15 | 13 | 0.0 | 3.2 | 0.00 | 0.00 | 0.00 | 96 | 1012.4 |
| 20260905070726 | 15 | 42 | 0.0 | 3.2 | 0.00 | 0.00 | 0.00 | 96 | |
| 20260905070223 | 15 | 27 | 0.0 | 1.6 | 0.00 | 0.00 | 0.00 | 96 | |
| 20260905065721 | 15 | 39 | 1.6 | 3.2 | 0.00 | 0.00 | 0.00 | 96 | |
| 20260905065215 | 15 | 31 | 0.0 | 3.2 | 0.00 | 0.00 | 0.00 | 96 | |
| 20260905064710 | 15 | 6 | 0.0 | 1.6 | 0.00 | 0.00 | 0.00 | 96 | |
| 20260905064206 | 15 | 18 | 1.6 | 3.2 | 0.00 | 0.00 | 0.00 | 96 | |
| 20260905063704 | 15 | 12 | 0.0 | 3.2 | 0.00 | 0.00 | 0.00 | 96 | |
| 20260905063201 | 15 | 23 | 0.0 | 3.2 | 0.00 | 0.00 | 0.00 | 96 | |
| 20260905062656 | 15 | 0 | 0.0 | 3.2 | 0.00 | 0.00 | 0.00 | 96 | |
| 20260905062156 | 15 | 352 | 0.0 | 3.2 | 0.00 | 0.00 | 0.00 | 96 | |
| 20260905061655 | 15 | 5 | 0.0 | 3.2 | 0.00 | 0.00 | 0.00 | 96 | |
| 20260905061150 | 14 | 22 | 0.0 | 1.6 | 0.00 | 0.00 | 0.00 | 96 | |
| 20260905060645 | 14 | 49 | 1.6 | 3.2 | 0.00 | 0.00 | 0.00 | 96 | |
| 20260905060142 | 13 | 104 | 1.6 | 3.2 | 0.00 | 0.00 | 0.00 | 96 | |
| 20260905055640 | 13 | 22 | 0.0 | 0.0 | 0.00 | 0.00 | 0.00 | 96 | |
| 20260905055136 | 13 | 125 | 1.6 | 1.6 | 0.00 | 0.00 | 0.00 | 96 | |
| 20260905054631 | 13 | 125 | 1.6 | 1.6 | 0.00 | 0.00 | 0.00 | 96 | |
| 20260905054126 | 13 | 106 | 1.6 | 3.2 | 0.00 | 0.00 | 0.00 | 96 | |
| 20260905053621 | 13 | 49 | 0.0 | 1.6 | 0.00 | 0.00 | 0.00 | 96 | |
| 20260905053116 | 13 | 116 | 0.0 | 3.2 | 0.00 | 0.00 | 0.00 | 96 | |
| 20260905052615 | 13 | 113 | 0.0 | 1.6 | 0.00 | 0.00 | 0.00 | 96 | |
| 20260905052110 | 13 | 66 | 0.0 | 1.6 | 0.00 | 0.00 | 0.00 | 96 | |
| 20260905051606 | 14 | 32 | 0.0 | 1.6 | 0.00 | 0.00 | 0.00 | 96 | |
| 20260905051102 | 14 | 50 | 0.0 | 1.6 | 0.00 | 0.00 | 0.00 | 96 | |
| 20260905050558 | 14 | 37 | 0.0 | 1.6 | 0.00 | 0.00 | 0.00 | 96 | |
| 20260905050054 | 14 | 77 | 0.0 | 1.6 | 0.00 | 0.00 | 0.00 | 96 | |
| 20260905045548 | 14 | 113 | 0.0 | 1.6 | 0.00 | 0.00 | 0.00 | 96 | |
| 20260905045044 | 14 | 76 | 0.0 | 1.6 | 0.00 | 0.00 | 0.00 | 96 | |
| 20260905044544 | 14 | 124 | 0.0 | 1.6 | 0.00 | 0.00 | 0.00 | 96 | |
| 20260905044038 | 15 | 44 | 0.0 | 1.6 | 0.00 | 0.00 | 0.00 | 96 | |
| 20260905043538 | 15 | 44 | 0.0 | 0.0 | 0.00 | 0.00 | 0.00 | 96 | |
| 20260905043033 | 15 | 50 | 0.0 | 1.6 | 0.00 | 0.00 | 0.00 | 96 | |
| 20260905042532 | 15 | 19 | 0.0 | 1.6 | 0.00 | 0.00 | 0.00 | 96 | |
| 20260905042027 | 15 | 47 | 0.0 | 1.6 | 0.00 | 0.00 | 0.00 | 96 | |
| 20260905041523 | 15 | 89 | 0.0 | 1.6 | 0.00 | 0.00 | 0.00 | 96 | |
| 20260905041018 | 15 | 32 | 0.0 | 0.0 | 0.00 | 0.00 | 0.00 | 96 | |
| 20260905040517 | 15 | 32 | 0.0 | 1.6 | 0.00 | 0.00 | 0.00 | 96 | |
| 20260905040016 | 15 | 37 | 0.0 | 0.0 | 0.00 | 0.71 | 0.71 | 96 | |
| 20260905035511 | 15 | 37 | 0.0 | 1.6 | 0.00 | 0.71 | 0.71 | 96 | |
| 20260905035008 | 15 | 20 | 1.6 | 3.2 | 0.00 | 0.71 | 0.71 | 96 | |
| 20260905034503 | 15 | 55 | 0.0 | 1.6 | 0.00 | 0.71 | 0.71 | 96 | |
| 20260905034003 | 16 | 37 | 0.0 | 0.0 | 0.00 | 0.71 | 0.71 | 96 | |
| 20260905033457 | 16 | 37 | 0.0 | 0.0 | 0.00 | 0.71 | 0.71 | 96 | |
| 20260905032952 | 16 | 37 | 0.0 | 3.2 | 0.00 | 0.71 | 0.71 | 96 | |
| 20260905032448 | 16 | 37 | 0.0 | 1.6 | 0.00 | 0.71 | 0.71 | 96 | |
| 20260905031943 | 16 | 71 | 0.0 | 3.2 | 0.00 | 0.71 | 0.71 | 96 | |
| 20260905031438 | 16 | 28 | 0.0 | 1.6 | 0.00 | 0.71 | 0.71 | 96 | |
| 20260905030933 | 16 | 89 | 0.0 | 0.0 | 0.00 | 0.71 | 0.71 | 96 | |
| 20260905030429 | 16 | 129 | 0.0 | 1.6 | 0.00 | 0.71 | 0.71 | 96 | |
| 20260905025927 | 16 | 50 | 0.0 | 1.6 | 0.00 | 0.71 | 0.71 | 96 | |
| 20260905025423 | 16 | 23 | 0.0 | 0.0 | 0.00 | 0.71 | 0.71 | 96 | |
| 20260905024920 | 16 | 89 | 0.0 | 0.0 | 0.00 | 0.71 | 0.71 | 95 | |
| 20260905024420 | 16 | 89 | 0.0 | 1.6 | 0.00 | 0.71 | 0.71 | 95 | |
| 20260905023915 | 17 | 115 | 0.0 | 1.6 | 0.00 | 0.71 | 0.71 | 95 | |
| 20260905023410 | 17 | 129 | 0.0 | 0.0 | 0.00 | 0.71 | 0.71 | 94 | |
| 20260905022909 | 17 | 129 | 0.0 | 0.0 | 0.00 | 0.71 | 0.71 | 93 | |
| 20260905022404 | 17 | 129 | 0.0 | 0.0 | 0.00 | 0.71 | 0.71 | 92 | |
| 20260905021859 | 17 | 129 | 0.0 | 0.0 | 0.00 | 0.71 | 0.71 | 92 | |
| 20260905021349 | 17 | 129 | 0.0 | 0.0 | 0.00 | 0.71 | 0.71 | 92 | |
| 20260905020844 | 17 | 142 | 0.0 | 1.6 | 0.00 | 0.71 | 0.71 | 92 | |
| 20260905020338 | 17 | 37 | 0.0 | 0.0 | 0.00 | 0.71 | 0.71 | 91 | |
| 20260905015838 | 17 | 44 | 0.0 | 1.6 | 0.00 | 0.71 | 0.71 | 91 | |
| 20260905015337 | 17 | 6 | 0.0 | 0.0 | 0.00 | 0.71 | 0.71 | 91 | |
| 20260905014831 | 17 | 6 | 0.0 | 1.6 | 0.00 | 0.71 | 0.71 | 91 | |
| 20260905014327 | 18 | 341 | 0.0 | 1.6 | 0.00 | 0.71 | 0.71 | 91 | |
| 20260905013821 | 17 | 24 | 1.6 | 3.2 | 0.00 | 0.71 | 0.71 | 91 | |
| 20260905013318 | 18 | 22 | 0.0 | 0.0 | 0.00 | 0.71 | 0.71 | 91 | |
| 20260905012813 | 18 | 37 | 0.0 | 1.6 | 0.00 | 0.71 | 0.71 | 90 | |
| 20260905012309 | 18 | 326 | 0.0 | 0.0 | 0.00 | 0.71 | 0.71 | 88 | |
| 20260905011805 | 18 | 326 | 0.0 | 0.0 | 0.00 | 0.71 | 0.71 | 87 | |
| 20260905011300 | 18 | 326 | 0.0 | 1.6 | 0.00 | 0.71 | 0.71 | 86 | |
| 20260905010755 | 18 | 6 | 0.0 | 3.2 | 0.00 | 0.71 | 0.71 | 86 | |
| 20260905010250 | 18 | 303 | 1.6 | 6.4 | 0.00 | 0.71 | 0.71 | 85 | |
| 20260905005747 | 18 | 350 | 0.0 | 4.8 | 0.00 | 0.71 | 0.71 | 85 | |
| 20260905005242 | 18 | 335 | 3.2 | 4.8 | 0.00 | 0.71 | 0.71 | 86 | |
| 20260905004741 | 18 | 339 | 1.6 | 4.8 | 0.00 | 0.71 | 0.71 | 86 | |
| 20260905004236 | 18 | 351 | 3.2 | 4.8 | 0.00 | 0.71 | 0.71 | 87 | |
| 20260905003736 | 18 | 350 | 1.6 | 3.2 | 0.00 | 0.71 | 0.71 | 88 | |
| 20260905003232 | 18 | 348 | 0.0 | 4.8 | 0.00 | 0.71 | 0.71 | 88 | |
| 20260905002728 | 18 | 338 | 0.0 | 3.2 | 0.00 | 0.71 | 0.71 | 89 | |
| 20260905002228 | 18 | 322 | 0.0 | 3.2 | 0.00 | 0.71 | 0.71 | 89 | |
| 20260905001723 | 18 | 354 | 0.0 | 1.6 | 0.00 | 0.71 | 0.71 | 89 | |
| 20260905001222 | 19 | 0 | 0.0 | 3.2 | 0.00 | 0.71 | 0.71 | 87 |